Find Starlink 38241

NORAD ID: 100225 Int'l Des: 2026-177 Owner: SPXS Country: US Constellation: starlink operational

Current View

Loading 3D Globe...

About Starlink 38241

Starlink 38241 (NORAD 100225) is a starlink constellation satellite launched Aug 4, 2026 by SPXS of US. with a mass of 575.00 kg.

Upcoming Passes

Passes for default location (London). Set your location on the main map for personalized predictions.

Altitude History

Loading altitude history...

Two-Line Element Set

1 A0225U 26177N 26235.60428180 -.00657815 00000-0 -45734-2 0 9998
2 A0225 97.2832 285.5554 0001960 97.0364 263.1125 15.76092475 4078
Epoch: Aug 23, 2026 • Age: 12 hours

Current Status

Altitude 350.8 km
Apogee / Perigee N/A
Velocity 7.70 km/s
Sub-Earth Point -16.72°S, 83.49°W
Launch Date Aug 4, 2026
Age 19 days
Type internet

Technical Details

Classification Payload
Mass 575.00 kg
Dry Mass 530.00 kg
Total Mass 575.00 kg
Length 0.30 m
Diameter 4.10 m
Span 29.00 m
Shape Box + pan
Manufacturer SPXS
Bus Type Starlink V2MO
Phase Status In Orbit
Owner/State SPXS/US

Most Searched